FW6754 Weather Reports


Display with metric or nautical units.
time (UTC)temp
F
wind
direction
speed
MPH
gust
MPH
rain 1hr
in
rain 24hr
in
rain mn
in
humidity
%
barometer
mb
20260508003912 45 0.0 0.0 0.00 0.00 0.00 10 1017.5
20260508003412 45 0.0 0.0 0.00 0.00 0.00 10 1017.4
20260508002913 45 0.0 0.0 0.00 0.00 0.00 10 1017.4
20260508002411 45 0.0 0.0 0.00 0.00 0.00 10 1017.4
20260508001912 45 0.0 0.0 0.00 0.00 0.00 10 1017.4
20260508001412 45 0.0 0.0 0.00 0.00 0.00 10 1017.4
20260508000912 44 0.0 0.0 0.00 0.00 0.00 10 1017.5
20260508000412 44 0.0 0.0 0.00 0.00 0.00 10 1017.5
20260507235911 44 0.0 0.0 0.00 0.00 0.00 10 1017.6
20260507235412 44 0.0 0.0 0.00 0.00 0.00 10 1017.6
20260507234911 45 0.0 0.0 0.00 0.00 0.00 10 1017.8
20260507234411 45 0.0 0.0 0.00 0.00 0.00 10 1017.9
20260507233412 45 0.0 0.0 0.00 0.00 0.00 10 1018.0
20260507232911 45 0.0 0.0 0.00 0.00 0.00 10 1018.1
20260507232411 45 0.0 0.0 0.00 0.00 0.00 10 1018.1
20260507230912 45 0.0 0.0 0.00 0.00 0.00 10 1018.0
20260507230411 45 0.0 0.0 0.00 0.00 0.00 10 1018.0
20260507225912 45 0.0 0.0 0.00 0.00 0.00 10 1017.9
20260507225412 45 0.0 0.0 0.00 0.00 0.00 10 1018.0
20260507224911 45 0.0 0.0 0.00 0.00 0.00 10 1018.0
20260507223912 46 0.0 0.0 0.00 0.00 0.00 10 1017.9
20260507223412 46 0.0 0.0 0.00 0.00 0.00 10 1018.0
20260507222911 46 0.0 0.0 0.00 0.00 0.00 10 1017.9
20260507222411 46 0.0 0.0 0.00 0.00 0.00 10 1018.0
20260507221911 46 0.0 0.0 0.00 0.00 0.00 10 1017.8
20260507220912 46 0.0 0.0 0.00 0.00 0.00 10 1017.9
20260507220412 46 0.0 0.0 0.00 0.00 0.00 10 1018.0
20260507215912 46 0.0 0.0 0.00 0.00 0.00 10 1018.0
20260507215412 46 0.0 0.0 0.00 0.00 0.00 10 1017.9
20260507214912 47 0.0 0.0 0.00 0.00 0.00 10 1017.9
20260507214411 47 0.0 0.0 0.00 0.00 0.00 10 1017.8
20260507213911 47 0.0 0.0 0.00 0.00 0.00 10 1017.7
20260507213411 47 0.0 0.0 0.00 0.00 0.00 10 1017.8
20260507212911 47 0.0 0.0 0.00 0.00 0.00 10 1017.7
20260507212412 48 0.0 0.0 0.00 0.00 0.00 10 1017.8
20260507211912 48 0.0 0.0 0.00 0.00 0.00 10 1017.6
20260507211411 48 0.0 0.0 0.00 0.00 0.00 10 1017.7
20260507210411 48 0.0 0.0 0.00 0.00 0.00 10 1017.6
20260507205411 48 0.0 0.0 0.00 0.00 0.00 10 1017.5
20260507204912 48 0.0 0.0 0.00 0.00 0.00 10 1017.5
20260507204411 48 0.0 0.0 0.00 0.00 0.00 10 1017.5
20260507203911 49 0.0 0.0 0.00 0.00 0.00 10 1017.5
20260507202912 49 0.0 0.0 0.00 0.00 0.00 10 1017.4
20260507201411 49 0.0 0.0 0.00 0.00 0.00 10 1017.3
20260507200913 49 0.0 0.0 0.00 0.00 0.00 10 1017.1
20260507200411 50 0.0 0.0 0.00 0.00 0.00 10 1017.2
20260507195411 50 0.0 0.0 0.00 0.00 0.00 10 1017.1
20260507194411 50 0.0 0.0 0.00 0.00 0.00 10 1016.8
20260507193912 51 0.0 0.0 0.00 0.00 0.00 10 1016.7
20260507193412 51 0.0 0.0 0.00 0.00 0.00 10 1016.6
20260507192912 51 0.0 0.0 0.00 0.00 0.00 10 1016.6
20260507192411 52 0.0 0.0 0.00 0.00 0.00 10 1016.4
20260507191912 52 0.0 0.0 0.00 0.00 0.00 10 1016.4
20260507191411 53 0.0 0.0 0.00 0.00 0.00 10 1016.3
20260507190912 53 0.0 0.0 0.00 0.00 0.00 10 1016.3
20260507190411 54 0.0 0.0 0.00 0.00 0.00 10 1016.3
20260507185912 54 0.0 0.0 0.00 0.00 0.00 10 1016.1
20260507185412 55 0.0 0.0 0.00 0.00 0.00 10 1016.2
20260507184911 55 0.0 0.0 0.00 0.00 0.00 10 1016.0
20260507183911 56 0.0 0.0 0.00 0.00 0.00 10 1015.9
20260507182912 57 0.0 0.0 0.00 0.00 0.00 10 1015.7
20260507182411 58 0.0 0.0 0.00 0.00 0.00 10 1015.7
20260507181911 59 0.0 0.0 0.00 0.00 0.00 10 1015.5
20260507180412 60 0.0 0.0 0.00 0.00 0.00 10 1015.3
20260507175912 61 0.0 0.0 0.00 0.00 0.00 10 1015.2
20260507175412 61 0.0 0.0 0.00 0.00 0.00 10 1015.1
20260507174912 63 0.0 0.0 0.00 0.00 0.00 10 1015.1
20260507174412 65 0.0 0.0 0.00 0.00 0.00 10 1015.0
20260507173913 69 0.0 0.0 0.00 0.00 0.00 10 1014.8
20260507173412 72 0.0 0.0 0.00 0.00 0.00 10 1014.5
20260507172911 79 0.0 0.0 0.00 0.00 0.00 10 1014.2
20260507171911 66 0.0 0.0 0.00 0.00 0.00 10 1014.9
20260507171412 64 0.0 0.0 0.00 0.00 0.00 10 1015.0
20260507170911 66 0.0 0.0 0.00 0.00 0.00 10 1014.8
20260507165912 68 0.0 0.0 0.00 0.00 0.00 10 1014.6
20260507165411 70 0.0 0.0 0.00 0.00 0.00 10 1014.6
20260507164913 69 0.0 0.0 0.00 0.00 0.00 10 1014.7
20260507164411 67 0.0 0.0 0.00 0.00 0.00 10 1014.9
20260507163412 65 0.0 0.0 0.00 0.00 0.00 10 1015.0
20260507162912 67 0.0 0.0 0.00 0.00 0.00 10 1014.9
20260507162411 68 0.0 0.0 0.00 0.00 0.00 10 1014.9
20260507161911 70 0.0 0.0 0.00 0.00 0.00 10 1014.8
20260507160911 70 0.0 0.0 0.00 0.00 0.00 10 1014.9
20260507160411 70 0.0 0.0 0.00 0.00 0.00 10 1014.9
20260507155912 71 0.0 0.0 0.00 0.00 0.00 10 1014.9
20260507154912 72 0.0 0.0 0.00 0.00 0.00 10 1014.9
20260507154412 71 0.0 0.0 0.00 0.00 0.00 10 1015.0
20260507153912 72 0.0 0.0 0.00 0.00 0.00 10 1014.9
20260507153411 75 0.0 0.0 0.00 0.00 0.00 10 1014.7
20260507152412 76 0.0 0.0 0.00 0.00 0.00 10 1014.9
20260507151912 77 0.0 0.0 0.00 0.00 0.00 10 1015.0
20260507151411 84 0.0 0.0 0.00 0.00 0.00 10 1014.6
20260507150912 87 0.0 0.0 0.00 0.00 0.00 10 1014.5
20260507150412 89 0.0 0.0 0.00 0.00 0.00 10 1014.4
20260507145912 89 0.0 0.0 0.00 0.00 0.00 10 1014.5
20260507145411 88 0.0 0.0 0.00 0.00 0.00 10 1014.6
20260507144911 87 0.0 0.0 0.00 0.00 0.00 10 1014.6
20260507143912 87 0.0 0.0 0.00 0.00 0.00 10 1014.6
20260507143412 84 0.0 0.0 0.00 0.00 0.00 10 1014.8
20260507142912 83 0.0 0.0 0.00 0.00 0.00 10 1015.0
20260507142412 78 0.0 0.0 0.00 0.00 0.00 10 1015.2
20260507141912 73 0.0 0.0 0.00 0.00 0.00 10 1015.6
20260507141412 80 0.0 0.0 0.00 0.00 0.00 10 1015.3
20260507140912 88 0.0 0.0 0.00 0.00 0.00 10 1014.9
20260507140412 87 0.0 0.0 0.00 0.00 0.00 10 1015.0
20260507135912 87 0.0 0.0 0.00 0.00 0.00 10 1015.0
20260507135412 85 0.0 0.0 0.00 0.00 0.00 10 1015.1
20260507134912 79 0.0 0.0 0.00 0.00 0.00 10 1015.4
20260507134411 73 0.0 0.0 0.00 0.00 0.00 10 1015.8
20260507133912 68 0.0 0.0 0.00 0.00 0.00 10 1016.1
20260507133412 68 0.0 0.0 0.00 0.00 0.00 10 1016.2
20260507132912 68 0.0 0.0 0.00 0.00 0.00 10 1016.0
20260507132412 68 0.0 0.0 0.00 0.00 0.00 10 1016.2
20260507131912 69 0.0 0.0 0.00 0.00 0.00 10 1016.1
20260507131412 68 0.0 0.0 0.00 0.00 0.00 10 1016.3
20260507130913 66 0.0 0.0 0.00 0.00 0.00 10 1016.4
20260507130412 65 0.0 0.0 0.00 0.00 0.00 10 1016.5
20260507125911 65 0.0 0.0 0.00 0.00 0.00 10 1016.6
20260507125411 68 0.0 0.0 0.00 0.00 0.00 10 1016.5
20260507124912 72 0.0 0.0 0.00 0.00 0.00 10 1016.3
20260507124411 72 0.0 0.0 0.00 0.00 0.00 10 1016.2
20260507122911 78 0.0 0.0 0.00 0.00 0.00 10 1016.0
20260507122411 81 0.0 0.0 0.00 0.00 0.00 10 1015.9
20260507121911 81 0.0 0.0 0.00 0.00 0.00 10 1015.8
20260507121411 80 0.0 0.0 0.00 0.00 0.00 10 1015.9
20260507120912 78 0.0 0.0 0.00 0.00 0.00 10 1016.2
20260507120412 75 0.0 0.0 0.00 0.00 0.00 10 1016.3
20260507115912 66 0.0 0.0 0.00 0.00 0.00 10 1016.8
20260507115411 63 0.0 0.0 0.00 0.00 0.00 10 1016.9
20260507114912 64 0.0 0.0 0.00 0.00 0.00 10 1017.0
20260507114412 63 0.0 0.0 0.00 0.00 0.00 10 1017.1
20260507113911 64 0.0 0.0 0.00 0.00 0.00 10 1017.2
20260507113411 63 0.0 0.0 0.00 0.00 0.00 10 1017.2
20260507112912 63 0.0 0.0 0.00 0.00 0.00 10 1017.3
20260507112412 61 0.0 0.0 0.00 0.00 0.00 10 1017.4
20260507111911 60 0.0 0.0 0.00 0.00 0.00 10 1017.5
20260507111411 60 0.0 0.0 0.00 0.00 0.00 10 1017.7
20260507110912 62 0.0 0.0 0.00 0.00 0.00 10 1017.5
20260507110412 60 0.0 0.0 0.00 0.00 0.00 10 1017.7
20260507105912 61 0.0 0.0 0.00 0.00 0.00 10 1017.6
20260507105412 63 0.0 0.0 0.00 0.00 0.00 10 1017.6
20260507104912 63 0.0 0.0 0.00 0.00 0.00 10 1017.6
20260507103912 63 0.0 0.0 0.00 0.00 0.00 10 1017.7
20260507103412 62 0.0 0.0 0.00 0.00 0.00 10 1017.9
20260507102412 60 0.0 0.0 0.00 0.00 0.00 10 1018.1
20260507101912 58 0.0 0.0 0.00 0.00 0.00 10 1018.1
20260507101411 58 0.0 0.0 0.00 0.00 0.00 10 1018.2
20260507100912 60 0.0 0.0 0.00 0.00 0.00 10 1018.1
20260507100412 60 0.0 0.0 0.00 0.00 0.00 10 1018.1
20260507095911 58 0.0 0.0 0.00 0.00 0.00 10 1018.1
20260507094911 59 0.0 0.0 0.00 0.00 0.00 10 1018.2
20260507094412 59 0.0 0.0 0.00 0.00 0.00 10 1018.2
20260507093912 59 0.0 0.0 0.00 0.00 0.00 10 1018.1
20260507093413 58 0.0 0.0 0.00 0.00 0.00 10 1018.1
20260507092911 58 0.0 0.0 0.00 0.00 0.00 10 1018.1
20260507091911 56 0.0 0.0 0.00 0.00 0.00 10 1018.1
20260507091412 55 0.0 0.0 0.00 0.00 0.00 10 1018.2
20260507090911 55 0.0 0.0 0.00 0.00 0.00 10 1018.1
20260507090411 56 0.0 0.0 0.00 0.00 0.00 10 1018.0
20260507085911 57 0.0 0.0 0.00 0.00 0.00 10 1018.1
20260507085411 57 0.0 0.0 0.00 0.00 0.00 10 1018.1
20260507084911 56 0.0 0.0 0.00 0.00 0.00 10 1018.1
20260507083911 54 0.0 0.0 0.00 0.00 0.00 10 1017.9
20260507082911 53 0.0 0.0 0.00 0.00 0.00 10 1018.0
20260507082411 54 0.0 0.0 0.00 0.00 0.00 10 1018.0
20260507081412 55 0.0 0.0 0.00 0.00 0.00 10 1017.9
20260507080912 55 0.0 0.0 0.00 0.00 0.00 10 1017.9
20260507080412 54 0.0 0.0 0.00 0.00 0.00 10 1018.0
20260507075912 54 0.0 0.0 0.00 0.00 0.00 10 1018.0
20260507075412 53 0.0 0.0 0.00 0.00 0.00 10 1018.1
20260507074912 53 0.0 0.0 0.00 0.00 0.00 10 1018.0
20260507074412 52 0.0 0.0 0.00 0.00 0.00 10 1018.0
20260507073911 52 0.0 0.0 0.00 0.00 0.00 10 1018.0
20260507072912 52 0.0 0.0 0.00 0.00 0.00 10 1018.0
20260507071912 51 0.0 0.0 0.00 0.00 0.00 10 1017.9
20260507071412 51 0.0 0.0 0.00 0.00 0.00 10 1018.0
20260507070912 51 0.0 0.0 0.00 0.00 0.00 10 1018.0
20260507070412 51 0.0 0.0 0.00 0.00 0.00 10 1017.9
20260507065912 50 0.0 0.0 0.00 0.00 0.00 10 1017.9
20260507065411 49 0.0 0.0 0.00 0.00 0.00 10 1018.0
20260507064912 49 0.0 0.0 0.00 0.00 0.00 10 1017.9
20260507064412 49 0.0 0.0 0.00 0.00 0.00 10 1017.8
20260507063912 49 0.0 0.0 0.00 0.00 0.00 10 1017.8
20260507063413 48 0.0 0.0 0.00 0.00 0.00 10 1017.9
20260507062912 48 0.0 0.0 0.00 0.00 0.00 10 1017.9
20260507062412 48 0.0 0.0 0.00 0.00 0.00 10 1017.9
20260507061911 47 0.0 0.0 0.00 0.00 0.00 10 1017.9
20260507061412 46 0.0 0.0 0.00 0.00 0.00 10 1017.9
20260507060913 45 0.0 0.0 0.00 0.00 0.00 10 1017.9
20260507060412 44 0.0 0.0 0.00 0.00 0.00 10 1018.0
20260507055912 44 0.0 0.0 0.00 0.00 0.00 10 1018.0
20260507055412 43 0.0 0.0 0.00 0.00 0.00 10 1018.0
20260507054913 42 0.0 0.0 0.00 0.00 0.00 10 1018.0
20260507054412 42 0.0 0.0 0.00 0.00 0.00 10 1018.0
20260507053912 41 0.0 0.0 0.00 0.00 0.00 10 1017.9
20260507053412 41 0.0 0.0 0.00 0.00 0.00 10 1018.0
20260507052911 41 0.0 0.0 0.00 0.00 0.00 10 1017.9
20260507052411 40 0.0 0.0 0.00 0.00 0.00 10 1018.0
20260507051412 40 0.0 0.0 0.00 0.00 0.00 10 1017.8
20260507050911 39 0.0 0.0 0.00 0.00 0.00 10 1017.8
20260507050411 39 0.0 0.0 0.00 0.00 0.00 10 1017.8
20260507045911 39 0.0 0.0 0.00 0.00 0.00 10 1017.8
20260507045411 39 0.0 0.0 0.00 0.00 0.00 10 1017.8
20260507044912 39 0.0 0.0 0.00 0.00 0.00 10 1017.7
20260507044412 39 0.0 0.0 0.00 0.00 0.00 10 1017.7
20260507043912 39 0.0 0.0 0.00 0.00 0.00 10 1017.6
20260507043411 39 0.0 0.0 0.00 0.00 0.00 10 1017.6
20260507042412 39 0.0 0.0 0.00 0.00 0.00 10 1017.6
20260507041912 40 0.0 0.0 0.00 0.00 0.00 10 1017.6
20260507040911 40 0.0 0.0 0.00 0.00 0.00 10 1017.6
20260507035911 40 0.0 0.0 0.00 0.00 0.00 10 1017.6
20260507035412 40 0.0 0.0 0.00 0.00 0.00 10 1017.6
20260507034912 40 0.0 0.0 0.00 0.00 0.00 10 1017.5
20260507034412 41 0.0 0.0 0.00 0.00 0.00 10 1017.4
20260507033912 41 0.0 0.0 0.00 0.00 0.00 10 1017.3
20260507033412 41 0.0 0.0 0.00 0.00 0.00 10 1017.4
20260507032911 41 0.0 0.0 0.00 0.00 0.00 10 1017.2
20260507032412 41 0.0 0.0 0.00 0.00 0.00 10 1017.3
20260507031911 41 0.0 0.0 0.00 0.00 0.00 10 1017.3
20260507031411 41 0.0 0.0 0.00 0.00 0.00 10 1017.3
20260507030911 41 0.0 0.0 0.00 0.00 0.00 10 1017.2
20260507025912 41 0.0 0.0 0.00 0.00 0.00 10 1017.2
20260507025412 42 0.0 0.0 0.00 0.00 0.00 10 1017.2
20260507024913 42 0.0 0.0 0.00 0.00 0.00 10 1017.3
20260507024412 42 0.0 0.0 0.00 0.00 0.00 10 1017.3
20260507023911 42 0.0 0.0 0.00 0.00 0.00 10 1017.2
20260507023411 42 0.0 0.0 0.00 0.00 0.00 10 1017.3
20260507022412 41 0.0 0.0 0.00 0.00 0.00 10 1017.3
20260507021911 42 0.0 0.0 0.00 0.00 0.00 10 1017.3
20260507021411 42 0.0 0.0 0.00 0.00 0.00 10 1017.2
20260507020912 42 0.0 0.0 0.00 0.00 0.00 10 1017.2
20260507020412 42 0.0 0.0 0.00 0.00 0.00 10 1017.2
20260507015912 42 0.0 0.0 0.00 0.00 0.00 10 1017.1
20260507015413 42 0.0 0.0 0.00 0.00 0.00 10 1017.0
20260507014912 41 0.0 0.0 0.00 0.00 0.00 10 1017.0
20260507014411 41 0.0 0.0 0.00 0.00 0.00 10 1016.9
20260507013911 41 0.0 0.0 0.00 0.00 0.00 10 1017.0
20260507013411 41 0.0 0.0 0.00 0.00 0.00 10 1017.0
20260507012911 41 0.0 0.0 0.00 0.00 0.00 10 1017.0
20260507012412 41 0.0 0.0 0.00 0.00 0.00 10 1017.0
20260507011412 40 0.0 0.0 0.00 0.00 0.00 10 1017.0
20260507010912 40 0.0 0.0 0.00 0.00 0.00 10 1017.0
20260507010411 40 0.0 0.0 0.00 0.00 0.00 10 1017.0
20260507005912 40 0.0 0.0 0.00 0.00 0.00 10 1017.0
20260507005412 41 0.0 0.0 0.00 0.00 0.00 10 1016.9
20260507004912 41 0.0 0.0 0.00 0.00 0.00 10 1017.0
20260507004411 41 0.0 0.0 0.00 0.00 0.00 10 1016.9